| time (UTC) | temp F | wind direction | speed knots | gust knots | rain 1hr in | rain 24hr in | rain mn in | humidity % | barometer mb |
| 20260507221506 | 82 | 296 | 0.0 | 1.7 | 0.00 | 0.00 | 0.00 | 79 | 1016.3 |
| 20260507221002 | 82 | 223 | 1.7 | 3.5 | 0.00 | 0.00 | 0.00 | 79 | 1016.3 |
| 20260507220459 | 82 | 97 | 0.0 | 6.1 | 0.00 | 0.00 | 0.00 | 78 | 1016.3 |
| 20260507215956 | 82 | 21 | 3.5 | 7.0 | 0.00 | 0.00 | 0.00 | 77 | 1016.4 |
| 20260507215452 | 83 | 294 | 0.0 | 2.6 | 0.00 | 0.00 | 0.00 | 77 | 1016.4 |
| 20260507214950 | 83 | 172 | 4.3 | 8.7 | 0.00 | 0.00 | 0.00 | 76 | 1016.1 |
| 20260507214447 | 83 | 249 | 2.6 | 5.2 | 0.00 | 0.00 | 0.00 | 76 | 1016.1 |
| 20260507213943 | 84 | 111 | 5.2 | 7.0 | 0.00 | 0.00 | 0.00 | 74 | 1015.9 |
| 20260507213440 | 84 | 284 | 2.6 | 3.5 | 0.00 | 0.00 | 0.00 | 75 | 1015.8 |
| 20260507212937 | 84 | 131 | 3.5 | 7.8 | 0.00 | 0.00 | 0.00 | 74 | 1015.9 |
| 20260507212432 | 84 | 153 | 1.7 | 3.5 | 0.00 | 0.00 | 0.00 | 73 | 1015.9 |
| 20260507211930 | 84 | 136 | 3.5 | 7.0 | 0.00 | 0.00 | 0.00 | 74 | 1015.6 |
| 20260507211426 | 84 | 131 | 3.5 | 6.1 | 0.00 | 0.00 | 0.00 | 74 | 1015.7 |
| 20260507210923 | 84 | 202 | 2.6 | 6.1 | 0.00 | 0.00 | 0.00 | 74 | 1015.7 |
| 20260507210420 | 84 | 191 | 2.6 | 6.1 | 0.00 | 0.00 | 0.00 | 74 | 1015.6 |
| 20260507205917 | 83 | 171 | 4.3 | 6.1 | 0.00 | 0.00 | 0.00 | 76 | 1015.7 |
| 20260507205414 | 85 | 116 | 8.7 | 11.3 | 0.00 | 0.00 | 0.00 | 73 | 1015.6 |
| 20260507204910 | 85 | 284 | 3.5 | 7.0 | 0.00 | 0.00 | 0.00 | 72 | 1015.5 |
| 20260507204406 | 85 | 133 | 7.8 | 9.6 | 0.00 | 0.00 | 0.00 | 73 | 1015.7 |
| 20260507203904 | 85 | 189 | 2.6 | 7.0 | 0.00 | 0.00 | 0.00 | 72 | 1015.6 |
| 20260507203402 | 85 | 8 | 1.7 | 6.1 | 0.00 | 0.00 | 0.00 | 72 | 1015.7 |
| 20260507202858 | 86 | 211 | 3.5 | 7.8 | 0.00 | 0.00 | 0.00 | 72 | 1015.4 |
| 20260507202355 | 85 | 244 | 3.5 | 13.0 | 0.00 | 0.00 | 0.00 | 73 | 1015.6 |
| 20260507201850 | 86 | 273 | 1.7 | 5.2 | 0.00 | 0.00 | 0.00 | 71 | 1015.6 |
| 20260507201346 | 86 | 155 | 2.6 | 5.2 | 0.00 | 0.00 | 0.00 | 71 | 1015.7 |
| 20260507200842 | 87 | 175 | 2.6 | 5.2 | 0.00 | 0.00 | 0.00 | 70 | 1015.7 |
| 20260507200338 | 87 | 152 | 3.5 | 5.2 | 0.00 | 0.00 | 0.00 | 70 | 1015.8 |
| 20260507195835 | 86 | 211 | 1.7 | 5.2 | 0.00 | 0.00 | 0.00 | 71 | 1015.9 |
| 20260507195332 | 86 | 257 | 1.7 | 7.0 | 0.00 | 0.00 | 0.00 | 71 | 1015.9 |
| 20260507194829 | 87 | 163 | 4.3 | 8.7 | 0.00 | 0.00 | 0.00 | 69 | 1015.9 |
| 20260507194325 | 86 | 248 | 0.9 | 7.0 | 0.00 | 0.00 | 0.00 | 71 | 1015.8 |
| 20260507193822 | 87 | 74 | 3.5 | 9.6 | 0.00 | 0.00 | 0.00 | 71 | 1015.9 |
| 20260507193320 | 87 | 148 | 6.1 | 7.8 | 0.00 | 0.00 | 0.00 | 70 | 1015.9 |
| 20260507192814 | 87 | 192 | 1.7 | 7.8 | 0.00 | 0.00 | 0.00 | 70 | 1016.1 |
| 20260507192312 | 87 | 37 | 2.6 | 6.1 | 0.00 | 0.00 | 0.00 | 69 | 1015.9 |
| 20260507191808 | 87 | 173 | 2.6 | 5.2 | 0.00 | 0.00 | 0.00 | 69 | 1016.0 |
| 20260507191304 | 87 | 226 | 4.3 | 5.2 | 0.00 | 0.00 | 0.00 | 69 | 1015.9 |
| 20260507190801 | 87 | 284 | 1.7 | 7.8 | 0.00 | 0.00 | 0.00 | 71 | 1016.0 |
| 20260507190300 | 86 | 203 | 2.6 | 6.1 | 0.00 | 0.00 | 0.00 | 72 | 1016.1 |
| 20260507185758 | 87 | 179 | 5.2 | 9.6 | 0.00 | 0.00 | 0.00 | 69 | 1016.3 |
| 20260507185254 | 87 | 248 | 2.6 | 5.2 | 0.00 | 0.00 | 0.00 | 70 | 1016.1 |
| 20260507184752 | 87 | 250 | 1.7 | 7.8 | 0.00 | 0.00 | 0.00 | 69 | 1016.1 |
| 20260507184250 | 87 | 32 | 1.7 | 2.6 | 0.00 | 0.00 | 0.00 | 70 | 1016.0 |
| 20260507183747 | 87 | 252 | 5.2 | 13.0 | 0.00 | 0.00 | 0.00 | 68 | 1016.3 |
| 20260507183243 | 87 | 85 | 3.5 | 5.2 | 0.00 | 0.00 | 0.00 | 69 | 1016.2 |
| 20260507182741 | 87 | 189 | 3.5 | 9.6 | 0.00 | 0.00 | 0.00 | 70 | 1016.2 |
| 20260507182235 | 87 | 210 | 6.1 | 8.7 | 0.00 | 0.00 | 0.00 | 68 | 1016.4 |
| 20260507181733 | 87 | 354 | 5.2 | 7.0 | 0.00 | 0.00 | 0.00 | 69 | 1016.4 |
| 20260507181229 | 87 | 10 | 1.7 | 7.0 | 0.00 | 0.00 | 0.00 | 71 | 1016.3 |
| 20260507180726 | 87 | 164 | 3.5 | 5.2 | 0.00 | 0.00 | 0.00 | 70 | 1016.5 |
| 20260507180223 | 88 | 235 | 2.6 | 6.1 | 0.00 | 0.00 | 0.00 | 69 | 1016.5 |
| 20260507175718 | 88 | 244 | 4.3 | 7.0 | 0.00 | 0.00 | 0.00 | 69 | 1016.3 |
| 20260507175215 | 88 | 200 | 1.7 | 7.8 | 0.00 | 0.00 | 0.00 | 69 | 1016.5 |
| 20260507174713 | 89 | 230 | 3.5 | 6.1 | 0.00 | 0.00 | 0.00 | 67 | 1016.6 |
| 20260507174211 | 88 | 254 | 3.5 | 6.1 | 0.00 | 0.00 | 0.00 | 69 | 1016.8 |
| 20260507173708 | 88 | 242 | 0.9 | 7.0 | 0.00 | 0.00 | 0.00 | 69 | 1016.8 |
| 20260507173205 | 88 | 356 | 5.2 | 7.8 | 0.00 | 0.00 | 0.00 | 67 | 1016.8 |
| 20260507172701 | 88 | 139 | 2.6 | 6.1 | 0.00 | 0.00 | 0.00 | 66 | 1017.0 |
| 20260507172158 | 88 | 203 | 3.5 | 7.8 | 0.00 | 0.00 | 0.00 | 67 | 1017.0 |
| 20260507171658 | 87 | 227 | 3.5 | 7.0 | 0.00 | 0.00 | 0.00 | 68 | 1017.0 |
| 20260507171156 | 87 | 182 | 7.0 | 7.8 | 0.00 | 0.00 | 0.00 | 68 | 1017.2 |
| 20260507170653 | 88 | 214 | 3.5 | 7.8 | 0.00 | 0.00 | 0.00 | 67 | 1017.3 |
| 20260507170150 | 88 | 261 | 3.5 | 7.8 | 0.00 | 0.00 | 0.00 | 66 | 1017.4 |
| 20260507165645 | 88 | 278 | 2.6 | 7.0 | 0.00 | 0.00 | 0.00 | 67 | 1017.7 |
| 20260507165142 | 88 | 175 | 3.5 | 7.0 | 0.00 | 0.00 | 0.00 | 66 | 1017.5 |
| 20260507164637 | 88 | 228 | 3.5 | 6.1 | 0.00 | 0.00 | 0.00 | 64 | 1017.6 |
| 20260507164135 | 88 | 223 | 3.5 | 6.1 | 0.00 | 0.00 | 0.00 | 65 | 1017.6 |
| 20260507163632 | 88 | 254 | 2.6 | 5.2 | 0.00 | 0.00 | 0.00 | 65 | 1017.7 |
| 20260507163130 | 88 | 338 | 0.9 | 6.1 | 0.00 | 0.00 | 0.00 | 65 | 1017.9 |
| 20260507162625 | 87 | 140 | 2.6 | 6.1 | 0.00 | 0.00 | 0.00 | 66 | 1017.9 |
| 20260507162122 | 87 | 148 | 6.1 | 7.0 | 0.00 | 0.00 | 0.00 | 66 | 1018.0 |
| 20260507161618 | 87 | 166 | 5.2 | 9.6 | 0.00 | 0.00 | 0.00 | 65 | 1017.9 |
| 20260507161115 | 88 | 240 | 2.6 | 5.2 | 0.00 | 0.00 | 0.00 | 65 | 1018.0 |
| 20260507160612 | 87 | 249 | 3.5 | 6.1 | 0.00 | 0.00 | 0.00 | 67 | 1018.1 |
| 20260507160108 | 87 | 178 | 1.7 | 9.6 | 0.00 | 0.00 | 0.00 | 69 | 1018.2 |
| 20260507155603 | 88 | 192 | 1.7 | 7.8 | 0.00 | 0.00 | 0.00 | 66 | 1018.3 |
| 20260507155100 | 88 | 243 | 2.6 | 7.0 | 0.00 | 0.00 | 0.00 | 66 | 1018.2 |
| 20260507154557 | 88 | 265 | 0.9 | 7.8 | 0.00 | 0.00 | 0.00 | 65 | 1018.4 |
| 20260507154054 | 87 | 91 | 2.6 | 7.0 | 0.00 | 0.00 | 0.00 | 68 | 1018.0 |
| 20260507153551 | 87 | 285 | 2.6 | 3.5 | 0.00 | 0.00 | 0.00 | 68 | 1018.1 |
| 20260507153047 | 88 | 177 | 3.5 | 8.7 | 0.00 | 0.00 | 0.00 | 68 | 1018.2 |
| 20260507152543 | 88 | 270 | 0.0 | 2.6 | 0.00 | 0.00 | 0.00 | 68 | 1018.5 |
| 20260507152040 | 87 | 228 | 1.7 | 2.6 | 0.00 | 0.00 | 0.00 | 69 | 1018.2 |
| 20260507151536 | 87 | 201 | 0.0 | 5.2 | 0.00 | 0.00 | 0.00 | 70 | 1018.2 |
| 20260507151033 | 87 | 267 | 0.9 | 11.3 | 0.00 | 0.00 | 0.00 | 70 | 1018.6 |
| 20260507150530 | 87 | 161 | 0.9 | 2.6 | 0.00 | 0.00 | 0.00 | 70 | 1018.2 |
| 20260507150027 | 88 | 119 | 5.2 | 7.0 | 0.00 | 0.00 | 0.00 | 66 | 1018.4 |
| 20260507145521 | 88 | 261 | 1.7 | 6.1 | 0.00 | 0.00 | 0.00 | 68 | 1018.5 |
| 20260507145020 | 87 | 295 | 1.7 | 6.1 | 0.00 | 0.00 | 0.00 | 69 | 1018.4 |
| 20260507144516 | 87 | 204 | 3.5 | 3.5 | 0.00 | 0.00 | 0.00 | 69 | 1018.4 |
| 20260507144014 | 86 | 257 | 3.5 | 3.5 | 0.00 | 0.00 | 0.00 | 71 | 1018.5 |
| 20260507143511 | 86 | 122 | 5.2 | 6.1 | 0.00 | 0.00 | 0.00 | 71 | 1018.7 |
| 20260507143008 | 86 | 181 | 1.7 | 5.2 | 0.00 | 0.00 | 0.00 | 72 | 1018.7 |
| 20260507142503 | 86 | 172 | 5.2 | 7.0 | 0.00 | 0.00 | 0.00 | 72 | 1018.7 |
| 20260507142000 | 85 | 222 | 2.6 | 3.5 | 0.00 | 0.00 | 0.00 | 73 | 1018.6 |
| 20260507141456 | 86 | 183 | 4.3 | 6.1 | 0.00 | 0.00 | 0.00 | 72 | 1018.7 |
| 20260507140953 | 85 | 277 | 1.7 | 3.5 | 0.00 | 0.00 | 0.00 | 72 | 1018.6 |
| 20260507140450 | 84 | 240 | 1.7 | 2.6 | 0.00 | 0.00 | 0.00 | 74 | 1018.7 |
| 20260507135947 | 84 | 167 | 1.7 | 3.5 | 0.00 | 0.00 | 0.00 | 74 | 1018.9 |
| 20260507135444 | 85 | 227 | 0.9 | 7.0 | 0.00 | 0.00 | 0.00 | 72 | 1018.8 |
| 20260507134941 | 86 | 239 | 0.0 | 6.1 | 0.00 | 0.00 | 0.00 | 70 | 1018.8 |
| 20260507134438 | 86 | 140 | 1.7 | 5.2 | 0.00 | 0.00 | 0.00 | 69 | 1018.8 |
| 20260507133934 | 86 | 175 | 1.7 | 2.6 | 0.00 | 0.00 | 0.00 | 68 | 1019.0 |
| 20260507133430 | 86 | 127 | 5.2 | 7.0 | 0.00 | 0.00 | 0.00 | 67 | 1018.8 |
| 20260507132929 | 86 | 165 | 1.7 | 5.2 | 0.00 | 0.00 | 0.00 | 68 | 1018.8 |
| 20260507132424 | 86 | 153 | 0.9 | 5.2 | 0.00 | 0.00 | 0.00 | 68 | 1018.9 |
| 20260507131921 | 86 | 152 | 4.3 | 5.2 | 0.00 | 0.00 | 0.00 | 67 | 1018.9 |
| 20260507131418 | 86 | 141 | 0.9 | 1.7 | 0.00 | 0.00 | 0.00 | 66 | 1018.6 |
| 20260507130915 | 85 | 3 | 0.9 | 2.6 | 0.00 | 0.00 | 0.00 | 67 | 1018.5 |
| 20260507130412 | 85 | 336 | 0.9 | 2.6 | 0.00 | 0.00 | 0.00 | 69 | 1018.6 |
| 20260507125911 | 84 | 155 | 0.0 | 0.9 | 0.00 | 0.00 | 0.00 | 71 | 1018.4 |
| 20260507125409 | 84 | 156 | 2.6 | 3.5 | 0.00 | 0.00 | 0.00 | 71 | 1018.5 |
| 20260507124906 | 84 | 359 | 0.0 | 5.2 | 0.00 | 0.00 | 0.00 | 70 | 1018.4 |
| 20260507124401 | 84 | 139 | 0.0 | 5.2 | 0.00 | 0.00 | 0.00 | 72 | 1018.4 |
| 20260507123900 | 84 | 71 | 1.7 | 2.6 | 0.00 | 0.00 | 0.00 | 72 | 1018.3 |
| 20260507123357 | 83 | 213 | 1.7 | 7.0 | 0.00 | 0.00 | 0.00 | 73 | 1018.4 |
| 20260507122853 | 83 | 73 | 0.9 | 3.5 | 0.00 | 0.00 | 0.00 | 74 | 1018.2 |
| 20260507122349 | 83 | 215 | 2.6 | 6.1 | 0.00 | 0.00 | 0.00 | 74 | 1018.2 |
| 20260507121845 | 83 | 35 | 1.7 | 2.6 | 0.00 | 0.00 | 0.00 | 74 | 1018.4 |
| 20260507121341 | 83 | 135 | 0.9 | 5.2 | 0.00 | 0.00 | 0.00 | 76 | 1018.3 |
| 20260507120837 | 84 | 150 | 1.7 | 2.6 | 0.00 | 0.00 | 0.00 | 75 | 1018.4 |
| 20260507120334 | 83 | 65 | 0.0 | 0.9 | 0.00 | 0.00 | 0.00 | 76 | 1018.1 |
| 20260507115830 | 82 | 99 | 0.0 | 0.9 | 0.00 | 0.00 | 0.00 | 79 | 1018.0 |
| 20260507115326 | 81 | 130 | 0.9 | 2.6 | 0.00 | 0.00 | 0.00 | 79 | 1018.0 |
| 20260507114822 | 81 | 123 | 2.6 | 5.2 | 0.00 | 0.00 | 0.00 | 79 | 1018.0 |
| 20260507114319 | 81 | 133 | 1.7 | 2.6 | 0.00 | 0.00 | 0.00 | 80 | 1017.9 |
| 20260507113817 | 80 | 94 | 1.7 | 2.6 | 0.00 | 0.00 | 0.00 | 80 | 1017.7 |
| 20260507113313 | 81 | 96 | 0.9 | 1.7 | 0.00 | 0.00 | 0.00 | 80 | 1017.9 |
| 20260507112811 | 81 | 62 | 0.9 | 1.7 | 0.00 | 0.00 | 0.00 | 80 | 1017.7 |
| 20260507112308 | 81 | 122 | 0.9 | 1.7 | 0.00 | 0.00 | 0.00 | 79 | 1017.8 |
| 20260507111806 | 81 | 187 | 0.0 | 0.9 | 0.00 | 0.00 | 0.00 | 80 | 1017.7 |
| 20260507111302 | 80 | 104 | 0.0 | 2.6 | 0.00 | 0.00 | 0.00 | 81 | 1017.5 |
| 20260507110758 | 79 | 42 | 0.0 | 0.0 | 0.00 | 0.00 | 0.00 | 84 | 1017.6 |
| 20260507110255 | 78 | 153 | 0.0 | 0.9 | 0.00 | 0.00 | 0.00 | 85 | 1017.6 |
| 20260507105752 | 77 | 80 | 0.0 | 0.9 | 0.00 | 0.00 | 0.00 | 87 | 1017.4 |
| 20260507105247 | 77 | 18 | 0.0 | 1.7 | 0.00 | 0.00 | 0.00 | 88 | 1017.6 |
| 20260507104745 | 77 | 45 | 0.0 | 0.9 | 0.00 | 0.00 | 0.00 | 88 | 1017.5 |
| 20260507104241 | 77 | 98 | 0.9 | 1.7 | 0.00 | 0.00 | 0.00 | 88 | 1017.7 |
| 20260507103738 | 77 | 54 | 0.0 | 1.7 | 0.00 | 0.00 | 0.00 | 88 | 1017.5 |
| 20260507103234 | 77 | 70 | 0.0 | 0.9 | 0.00 | 0.00 | 0.00 | 88 | 1017.4 |
| 20260507102730 | 76 | 104 | 0.9 | 1.7 | 0.00 | 0.00 | 0.00 | 88 | 1017.5 |
| 20260507102227 | 76 | 114 | 0.0 | 1.7 | 0.00 | 0.00 | 0.00 | 89 | 1017.5 |
| 20260507101723 | 76 | 57 | 0.9 | 1.7 | 0.00 | 0.00 | 0.00 | 89 | 1017.5 |
| 20260507101219 | 76 | 75 | 1.7 | 2.6 | 0.00 | 0.00 | 0.00 | 89 | 1017.6 |
| 20260507100716 | 76 | 10 | 0.0 | 0.0 | 0.00 | 0.00 | 0.00 | 90 | 1017.4 |
| 20260507100214 | 75 | 348 | 0.0 | 0.0 | 0.00 | 0.00 | 0.00 | 90 | 1017.3 |
| 20260507095712 | 75 | 338 | 0.0 | 0.9 | 0.00 | 0.00 | 0.00 | 90 | 1017.2 |
| 20260507095208 | 75 | 344 | 0.0 | 1.7 | 0.00 | 0.00 | 0.00 | 90 | 1017.0 |
| 20260507094705 | 76 | 267 | 0.0 | 0.0 | 0.00 | 0.00 | 0.00 | 89 | 1017.0 |
| 20260507094202 | 76 | 242 | 0.0 | 0.9 | 0.00 | 0.00 | 0.00 | 89 | 1016.9 |
| 20260507093659 | 76 | 197 | 0.9 | 2.6 | 0.00 | 0.00 | 0.00 | 88 | 1016.8 |
| 20260507093158 | 76 | 42 | 0.0 | 1.7 | 0.00 | 0.00 | 0.00 | 88 | 1017.1 |
| 20260507092654 | 76 | 124 | 0.0 | 0.9 | 0.00 | 0.00 | 0.00 | 88 | 1017.0 |
| 20260507092151 | 76 | 85 | 0.0 | 0.9 | 0.00 | 0.00 | 0.00 | 89 | 1017.1 |
| 20260507091647 | 76 | 92 | 0.0 | 0.0 | 0.00 | 0.00 | 0.00 | 89 | 1017.2 |
| 20260507091144 | 76 | 100 | 0.0 | 0.0 | 0.00 | 0.00 | 0.00 | 88 | 1017.2 |
| 20260507090639 | 76 | 61 | 0.0 | 0.0 | 0.00 | 0.00 | 0.00 | 88 | 1017.1 |
| 20260507090137 | 76 | 148 | 0.9 | 0.9 | 0.00 | 0.00 | 0.00 | 88 | 1016.9 |
| 20260507085634 | 76 | 120 | 0.0 | 0.9 | 0.00 | 0.00 | 0.00 | 88 | 1017.0 |
| 20260507085130 | 76 | 164 | 0.0 | 0.9 | 0.00 | 0.00 | 0.00 | 88 | 1017.3 |
| 20260507084627 | 76 | 63 | 0.0 | 0.0 | 0.00 | 0.00 | 0.00 | 88 | 1017.2 |
| 20260507084124 | 76 | 146 | 0.0 | 0.9 | 0.00 | 0.00 | 0.00 | 88 | 1017.2 |
| 20260507083620 | 77 | 105 | 0.0 | 0.9 | 0.00 | 0.00 | 0.00 | 88 | 1017.2 |
| 20260507083118 | 77 | 71 | 0.0 | 0.0 | 0.00 | 0.00 | 0.00 | 87 | 1017.3 |
| 20260507082613 | 77 | 4 | 0.0 | 0.0 | 0.00 | 0.00 | 0.00 | 87 | 1017.2 |
| 20260507082110 | 77 | 74 | 0.0 | 1.7 | 0.00 | 0.00 | 0.00 | 87 | 1017.3 |
| 20260507081606 | 77 | 85 | 0.0 | 2.6 | 0.00 | 0.00 | 0.00 | 88 | 1017.1 |
| 20260507081103 | 77 | 100 | 0.9 | 1.7 | 0.00 | 0.00 | 0.00 | 88 | 1017.3 |
| 20260507080559 | 77 | 75 | 1.7 | 2.6 | 0.00 | 0.00 | 0.00 | 88 | 1017.2 |
| 20260507080055 | 77 | 115 | 0.0 | 0.9 | 0.00 | 0.00 | 0.00 | 88 | 1017.3 |
| 20260507075550 | 76 | 65 | 0.0 | 0.9 | 0.00 | 0.00 | 0.00 | 88 | 1017.2 |
| 20260507075047 | 76 | 336 | 0.0 | 0.0 | 0.00 | 0.00 | 0.00 | 88 | 1017.2 |
| 20260507074544 | 76 | 52 | 0.0 | 0.0 | 0.00 | 0.00 | 0.00 | 88 | 1017.0 |
| 20260507074043 | 76 | 163 | 0.0 | 0.9 | 0.00 | 0.00 | 0.00 | 88 | 1017.3 |
| 20260507073538 | 76 | 170 | 0.0 | 0.0 | 0.00 | 0.00 | 0.00 | 88 | 1017.2 |
| 20260507073035 | 77 | 146 | 0.0 | 0.9 | 0.00 | 0.00 | 0.00 | 88 | 1017.4 |
| 20260507072533 | 77 | 136 | 0.0 | 0.9 | 0.00 | 0.00 | 0.00 | 87 | 1017.3 |
| 20260507072030 | 77 | 140 | 0.0 | 0.9 | 0.00 | 0.00 | 0.00 | 87 | 1017.4 |
| 20260507071527 | 77 | 141 | 0.0 | 0.0 | 0.00 | 0.00 | 0.00 | 87 | 1017.3 |
| 20260507071024 | 77 | 38 | 0.0 | 0.0 | 0.00 | 0.00 | 0.00 | 87 | 1017.4 |
| 20260507070521 | 77 | 42 | 0.0 | 0.0 | 0.00 | 0.00 | 0.00 | 87 | 1017.5 |
| 20260507070018 | 77 | 102 | 0.0 | 0.0 | 0.00 | 0.00 | 0.00 | 87 | 1017.5 |
| 20260507065514 | 76 | 194 | 0.0 | 1.7 | 0.00 | 0.00 | 0.00 | 87 | 1017.7 |
| 20260507065011 | 76 | 69 | 1.7 | 5.2 | 0.00 | 0.00 | 0.00 | 87 | 1017.5 |
| 20260507064509 | 76 | 99 | 0.9 | 1.7 | 0.00 | 0.00 | 0.00 | 87 | 1017.6 |
| 20260507064007 | 77 | 108 | 0.0 | 2.6 | 0.00 | 0.00 | 0.00 | 86 | 1017.5 |
| 20260507063504 | 77 | 52 | 0.0 | 0.9 | 0.00 | 0.00 | 0.00 | 87 | 1017.7 |
| 20260507063001 | 77 | 57 | 0.0 | 0.9 | 0.00 | 0.00 | 0.00 | 87 | 1017.8 |
| 20260507062458 | 77 | 83 | 0.9 | 1.7 | 0.00 | 0.00 | 0.00 | 87 | 1017.8 |
| 20260507061955 | 77 | 24 | 0.0 | 0.9 | 0.00 | 0.00 | 0.00 | 87 | 1018.0 |
| 20260507061453 | 77 | 60 | 0.0 | 0.0 | 0.00 | 0.00 | 0.00 | 87 | 1017.9 |
| 20260507060952 | 77 | 141 | 0.0 | 0.0 | 0.00 | 0.00 | 0.00 | 87 | 1018.0 |
| 20260507060448 | 77 | 173 | 0.0 | 1.7 | 0.00 | 0.00 | 0.00 | 87 | 1018.0 |
| 20260507055944 | 77 | 215 | 1.7 | 1.7 | 0.00 | 0.00 | 0.00 | 87 | 1017.8 |
| 20260507055440 | 77 | 149 | 0.9 | 1.7 | 0.00 | 0.00 | 0.00 | 87 | 1018.3 |
| 20260507054937 | 77 | 177 | 0.0 | 0.0 | 0.00 | 0.00 | 0.00 | 87 | 1018.2 |
| 20260507054433 | 77 | 199 | 0.0 | 0.9 | 0.00 | 0.00 | 0.00 | 87 | 1018.3 |
| 20260507053930 | 77 | 171 | 0.0 | 1.7 | 0.00 | 0.00 | 0.00 | 87 | 1018.3 |
| 20260507053428 | 77 | 159 | 0.0 | 0.9 | 0.00 | 0.00 | 0.00 | 87 | 1018.4 |
| 20260507052926 | 77 | 185 | 0.0 | 0.0 | 0.00 | 0.00 | 0.00 | 87 | 1018.3 |
| 20260507052423 | 77 | 191 | 0.0 | 0.9 | 0.00 | 0.00 | 0.00 | 87 | 1018.6 |
| 20260507051920 | 77 | 197 | 0.0 | 0.0 | 0.00 | 0.00 | 0.00 | 87 | 1018.7 |
| 20260507051418 | 77 | 120 | 0.9 | 2.6 | 0.00 | 0.00 | 0.00 | 87 | 1018.6 |
| 20260507050915 | 77 | 224 | 0.9 | 1.7 | 0.00 | 0.00 | 0.00 | 86 | 1018.7 |
| 20260507050411 | 78 | 167 | 0.9 | 0.9 | 0.00 | 0.00 | 0.00 | 86 | 1018.5 |
| 20260507045908 | 78 | 196 | 0.9 | 0.9 | 0.00 | 0.00 | 0.00 | 85 | 1018.8 |
| 20260507045405 | 78 | 51 | 0.0 | 0.9 | 0.00 | 0.00 | 0.00 | 85 | 1018.8 |
| 20260507044902 | 78 | 296 | 0.0 | 0.9 | 0.00 | 0.00 | 0.00 | 85 | 1019.1 |
| 20260507044358 | 78 | 69 | 0.0 | 1.7 | 0.00 | 0.00 | 0.00 | 85 | 1019.1 |
| 20260507043855 | 78 | 69 | 0.9 | 0.9 | 0.00 | 0.00 | 0.00 | 85 | 1019.0 |
| 20260507043351 | 78 | 93 | 0.9 | 1.7 | 0.00 | 0.00 | 0.00 | 84 | 1019.3 |
| 20260507042847 | 78 | 26 | 0.0 | 1.7 | 0.00 | 0.00 | 0.00 | 84 | 1019.2 |
| 20260507042344 | 78 | 42 | 0.0 | 0.9 | 0.00 | 0.00 | 0.00 | 84 | 1019.4 |
| 20260507041840 | 78 | 55 | 0.9 | 1.7 | 0.00 | 0.00 | 0.00 | 84 | 1019.5 |
| 20260507041337 | 78 | 32 | 0.0 | 0.9 | 0.00 | 0.00 | 0.00 | 84 | 1019.5 |
| 20260507040834 | 78 | 79 | 0.9 | 0.9 | 0.00 | 0.00 | 0.00 | 83 | 1019.6 |
| 20260507040330 | 78 | 167 | 0.0 | 1.7 | 0.00 | 0.00 | 0.00 | 83 | 1019.6 |
| 20260507035826 | 78 | 143 | 0.9 | 0.9 | 0.00 | 0.00 | 0.00 | 83 | 1019.6 |
| 20260507035322 | 78 | 142 | 0.0 | 0.9 | 0.00 | 0.00 | 0.00 | 83 | 1019.6 |
| 20260507034820 | 78 | 52 | 0.0 | 0.0 | 0.00 | 0.00 | 0.00 | 82 | 1019.6 |
| 20260507034316 | 78 | 81 | 0.0 | 0.9 | 0.00 | 0.00 | 0.00 | 82 | 1019.7 |
| 20260507033814 | 78 | 90 | 0.9 | 0.9 | 0.00 | 0.00 | 0.00 | 82 | 1019.6 |
| 20260507033312 | 78 | 66 | 0.0 | 1.7 | 0.00 | 0.00 | 0.00 | 82 | 1019.4 |
| 20260507032809 | 78 | 82 | 0.0 | 0.9 | 0.00 | 0.00 | 0.00 | 81 | 1019.7 |
| 20260507032306 | 78 | 147 | 0.9 | 1.7 | 0.00 | 0.00 | 0.00 | 81 | 1019.7 |
| 20260507031801 | 78 | 90 | 0.0 | 0.9 | 0.00 | 0.00 | 0.00 | 81 | 1019.6 |
| 20260507031258 | 78 | 76 | 0.0 | 1.7 | 0.00 | 0.00 | 0.00 | 81 | 1019.7 |
| 20260507030755 | 79 | 95 | 1.7 | 1.7 | 0.00 | 0.00 | 0.00 | 80 | 1019.5 |
| 20260507030252 | 79 | 72 | 0.0 | 1.7 | 0.00 | 0.00 | 0.00 | 80 | 1019.6 |
| 20260507025749 | 79 | 84 | 1.7 | 1.7 | 0.00 | 0.00 | 0.00 | 79 | 1019.6 |
| 20260507025246 | 79 | 72 | 0.9 | 1.7 | 0.00 | 0.00 | 0.00 | 79 | 1019.9 |
| 20260507024745 | 79 | 69 | 0.0 | 1.7 | 0.00 | 0.00 | 0.00 | 79 | 1019.8 |
| 20260507024241 | 79 | 102 | 1.7 | 1.7 | 0.00 | 0.00 | 0.00 | 78 | 1020.0 |
| 20260507023737 | 79 | 30 | 0.0 | 0.9 | 0.00 | 0.00 | 0.00 | 78 | 1020.0 |
| 20260507023234 | 79 | 53 | 0.0 | 0.9 | 0.00 | 0.00 | 0.00 | 77 | 1019.8 |
| 20260507022732 | 79 | 136 | 0.0 | 0.9 | 0.00 | 0.00 | 0.00 | 78 | 1019.7 |
| 20260507022227 | 79 | 55 | 0.9 | 1.7 | 0.00 | 0.00 | 0.00 | 77 | 1019.7 |
| 20260507021724 | 79 | 54 | 0.9 | 1.7 | 0.00 | 0.00 | 0.00 | 77 | 1019.4 |
| 20260507021219 | 79 | 58 | 0.9 | 1.7 | 0.00 | 0.00 | 0.00 | 77 | 1019.7 |
| 20260507020718 | 79 | 75 | 0.0 | 1.7 | 0.00 | 0.00 | 0.00 | 76 | 1019.6 |
| 20260507020214 | 80 | 31 | 0.0 | 0.9 | 0.00 | 0.00 | 0.00 | 76 | 1019.4 |
| 20260507015712 | 80 | 4 | 0.0 | 0.0 | 0.00 | 0.00 | 0.00 | 76 | 1019.3 |
| 20260507015209 | 80 | 72 | 0.9 | 1.7 | 0.00 | 0.00 | 0.00 | 75 | 1019.2 |
| 20260507014705 | 80 | 12 | 0.0 | 0.0 | 0.00 | 0.00 | 0.00 | 75 | 1019.4 |
| 20260507014201 | 80 | 67 | 0.0 | 0.9 | 0.00 | 0.00 | 0.00 | 75 | 1019.1 |
| 20260507013658 | 80 | 79 | 0.9 | 1.7 | 0.00 | 0.00 | 0.00 | 75 | 1019.1 |
| 20260507013156 | 80 | 239 | 0.0 | 0.9 | 0.00 | 0.00 | 0.00 | 75 | 1019.0 |
| 20260507012653 | 80 | 12 | 1.7 | 1.7 | 0.00 | 0.00 | 0.00 | 75 | 1019.0 |
| 20260507012148 | 80 | 196 | 3.5 | 5.2 | 0.00 | 0.00 | 0.00 | 74 | 1019.1 |
| 20260507011647 | 80 | 206 | 0.9 | 1.7 | 0.00 | 0.00 | 0.00 | 74 | 1018.9 |
| 20260507011142 | 80 | 309 | 0.9 | 1.7 | 0.00 | 0.00 | 0.00 | 74 | 1018.9 |
| 20260507010637 | 80 | 176 | 1.7 | 5.2 | 0.00 | 0.00 | 0.00 | 74 | 1019.1 |
| 20260507010133 | 80 | 208 | 1.7 | 2.6 | 0.00 | 0.00 | 0.00 | 74 | 1018.9 |
| 20260507005631 | 81 | 207 | 1.7 | 3.5 | 0.00 | 0.00 | 0.00 | 73 | 1018.7 |
| 20260507005127 | 81 | 240 | 3.5 | 5.2 | 0.00 | 0.00 | 0.00 | 73 | 1018.8 |
| 20260507004624 | 81 | 182 | 1.7 | 2.6 | 0.00 | 0.00 | 0.00 | 72 | 1018.7 |
| 20260507004122 | 81 | 31 | 0.0 | 1.7 | 0.00 | 0.00 | 0.00 | 72 | 1018.7 |
| 20260507003618 | 81 | 50 | 0.9 | 1.7 | 0.00 | 0.00 | 0.00 | 71 | 1018.5 |
| 20260507003113 | 81 | 125 | 1.7 | 2.6 | 0.00 | 0.00 | 0.00 | 71 | 1018.7 |
| 20260507002609 | 81 | 99 | 0.9 | 2.6 | 0.00 | 0.00 | 0.00 | 71 | 1018.4 |
| 20260507002105 | 81 | 90 | 1.7 | 2.6 | 0.00 | 0.00 | 0.00 | 71 | 1018.5 |
| 20260507001602 | 81 | 42 | 0.9 | 3.5 | 0.00 | 0.00 | 0.00 | 71 | 1018.3 |
| 20260507001100 | 82 | 59 | 2.6 | 3.5 | 0.00 | 0.00 | 0.00 | 71 | 1018.3 |
| 20260507000556 | 82 | 144 | 0.9 | 3.5 | 0.00 | 0.00 | 0.00 | 71 | 1018.3 |
| 20260507000051 | 82 | 10 | 0.9 | 2.6 | 0.00 | 0.00 | 0.00 | 71 | 1018.1 |
| 20260506235549 | 82 | 33 | 1.7 | 2.6 | 0.00 | 0.00 | 0.00 | 71 | 1018.0 |
| 20260506235044 | 82 | 42 | 1.7 | 2.6 | 0.00 | 0.00 | 0.00 | 71 | 1018.1 |
| 20260506234542 | 82 | 2 | 0.9 | 2.6 | 0.00 | 0.00 | 0.00 | 71 | 1018.0 |
| 20260506234039 | 82 | 21 | 0.0 | 2.6 | 0.00 | 0.00 | 0.00 | 71 | 1017.9 |
| 20260506233536 | 83 | 94 | 0.9 | 3.5 | 0.00 | 0.00 | 0.00 | 70 | 1017.9 |
| 20260506233032 | 83 | 26 | 1.7 | 1.7 | 0.00 | 0.00 | 0.00 | 70 | 1017.8 |
| 20260506232529 | 83 | 49 | 0.9 | 0.9 | 0.00 | 0.00 | 0.00 | 70 | 1017.6 |
| 20260506232024 | 83 | 195 | 0.9 | 2.6 | 0.00 | 0.00 | 0.00 | 69 | 1017.7 |
| 20260506231522 | 83 | 53 | 0.9 | 2.6 | 0.00 | 0.00 | 0.00 | 69 | 1017.4 |
| 20260506231020 | 84 | 36 | 0.9 | 1.7 | 0.00 | 0.00 | 0.00 | 68 | 1017.6 |
| 20260506230516 | 84 | 187 | 0.9 | 1.7 | 0.00 | 0.00 | 0.00 | 68 | 1017.3 |
| 20260506230014 | 84 | 206 | 0.9 | 5.2 | 0.00 | 0.00 | 0.00 | 67 | 1017.4 |
| 20260506225511 | 84 | 51 | 0.9 | 3.5 | 0.00 | 0.00 | 0.00 | 67 | 1017.2 |
| 20260506225007 | 84 | 81 | 1.7 | 3.5 | 0.00 | 0.00 | 0.00 | 66 | 1017.2 |
| 20260506224503 | 84 | 95 | 1.7 | 5.2 | 0.00 | 0.00 | 0.00 | 65 | 1017.1 |
| 20260506224000 | 85 | 26 | 1.7 | 2.6 | 0.00 | 0.00 | 0.00 | 64 | 1017.0 |
| 20260506223456 | 85 | 354 | 0.0 | 1.7 | 0.00 | 0.00 | 0.00 | 64 | 1016.9 |
| 20260506222953 | 85 | 51 | 2.6 | 3.5 | 0.00 | 0.00 | 0.00 | 63 | 1016.9 |
| 20260506222450 | 86 | 229 | 0.0 | 3.5 | 0.00 | 0.00 | 0.00 | 62 | 1016.8 |
| 20260506221946 | 86 | 32 | 0.0 | 1.7 | 0.00 | 0.00 | 0.00 | 62 | 1016.5 |